Regional Weather Roundup
Issued by NWS Goodland, KS

Home | Current Version | Previous Version | Text Only | Print | Product List | Glossary On
Versions: 1 2 3 4 5 6 7 8 9 10 11 12 13 14 15 16 17 18 19 20 21 22 23 24 25 26 27 28 29 30 31 32 33 34 35 36 37 38 39 40 41 42 43 44 45 46 47 48 49 50
000
ASUS43 KGLD 191759
RWRGLD

GOODLAND FORECAST AREA HOURLY WEATHER ROUNDUP
NATIONAL WEATHER SERVICE GOODLAND KS
1200 PM MDT SAT APR 19 2014

...OFFICIAL OBSERVATIONS...

CITY           SKY/WX    TMP DP  RH WIND       PRES   REMARKS
GOODLAND KS    PTSUNNY   68  45  43 NE21G31   29.98S
HILL CITY KS   MOSUNNY   75  46  35 SW13G23   29.92S
IMPERIAL NEB   MOSUNNY   63  41  44 NE18G24   30.02R
MCCOOK NEB     MOSUNNY   66  49  54 NE15      29.96F
AKRON CO       PTSUNNY   61  42  49 N14G21    30.06R
BURLINGTON CO  PTSUNNY   68  43  40 N21G29    30.00S
LIMON CO       CLOUDY    66  34  30 N18G26    30.05F
$$

...UNOFFICIAL OBSERVATIONS...

CITY           SKY/WX    TMP DP  RH WIND       PRES   REMARKS
COLBY KS       SUNNY     66  50  55 N15G23    29.97S
LENORA KS        N/A     71  32  23 S9          N/A
LEOTI KS         N/A     74  32  21 CALM        N/A
NORTON KS      SUNNY     68  46  45 SE7       29.93S
SHARON SPRINGS   N/A     70  47  43 N13G20      N/A
WAKEENEY KS      N/A     74  42  32 MISG        N/A
$$



USA.gov is the U.S. government's official web portal to all federal, state and local government web resources and services.